Rolla, MO

7:55 AM CDT on July 24, 2017 (GMT -0500)
Rolla National

Weather History for KVIH - January, 2014

Change the Weather History Date:

Saturday, January 4, 2014

  Actual Average Record
Temperature  
Mean Temperature 34 °F 31 °F  
Max Temperature 42 °F 40 °F 66 °F (1950)
Min Temperature 25 °F 22 °F -8 °F (1959)
Degree Days  
Heating Degree Days 31 34  
Month to date heating degree days 168 136  
Since 1 July heating degree days 2255 2053  
Cooling Degree Days 0 0  
Month to date cooling degree days 0 0  
Year to date cooling degree days 0 0  
Moisture  
Dew Point 26 °F    
Average Humidity 73    
Maximum Humidity 92    
Minimum Humidity 54    
Precipitation  
Precipitation 0.01 in 0.08 in 2.12 in (1993)
Month to date precipitation 0.01 0.31  
Year to date precipitation 0.01 0.31  
Sea Level Pressure  
Sea Level Pressure 29.92 in    
Wind  
Wind Speed 13 mph (South)    
Max Wind Speed 28 mph    
Max Gust Speed 35 mph    
Visibility 8 miles    
Events      
T = Trace of Precipitation, MM = Missing Value Source: NWS Daily Summary

Daily Weather History Graph

Daily Weather History Graph

Search for Another Location

Airport or City:

Trip Planner

Search our weather history database for the weather conditions in past years. The results will help you decide how hot, cold, wet, or windy it might be!

Date:

Astronomy

Jan. 04, 2014 Rise Set
Actual Time 7:23 AM CST 5:00 PM CST
Civil Twilight 6:54 AM CST 5:29 PM CST
Nautical Twilight 6:21 AM CST 6:02 PM CST
Astronomical Twilight 5:49 AM CST 6:34 PM CST
Moon 9:33 AM CST (1/4) 9:16 PM CST (1/4)
Length of Visible Light 10h 35m
Length of Day
9h 36m
Waxing Crescent, 15% of the Moon is Illuminated
Jan 4
Waxing Crescent
Jan 7
First Quarter
Jan 15
Full
Jan 23
Last Quarter
Jan 30
New

Hourly Weather History & Observations

Time (CST) Temp. Windchill Dew Point Humidity Pressure Visibility Wind Dir Wind Speed Gust Speed Precip Events Conditions
12:53 AM 26.1 °F 11.3 °F 15.1 °F 63% 29.95 in 10.0 mi South 23.0 mph 31.1 mph N/A   Clear
1:53 AM 26.1 °F 12.7 °F 15.1 °F 63% 29.94 in 10.0 mi South 18.4 mph 28.8 mph N/A   Clear
2:53 AM 27.0 °F 12.8 °F 16.0 °F 63% 29.94 in 10.0 mi South 21.9 mph 31.1 mph N/A   Clear
3:53 AM 27.0 °F 12.5 °F 16.0 °F 63% 29.91 in 10.0 mi South 23.0 mph 32.2 mph N/A   Clear
4:53 AM 28.0 °F 15.3 °F 17.1 °F 63% 29.91 in 10.0 mi South 18.4 mph - N/A   Clear
5:53 AM 28.0 °F 14.6 °F 17.1 °F 63% 29.91 in 10.0 mi South 20.7 mph - N/A   Clear
6:53 AM 28.0 °F 14.6 °F 18.0 °F 66% 29.91 in 10.0 mi South 20.7 mph - N/A   Clear
7:53 AM 28.9 °F 15.8 °F 18.0 °F 64% 29.94 in 10.0 mi South 20.7 mph 28.8 mph N/A   Clear
8:53 AM 30.9 °F 18.1 °F 19.0 °F 61% 29.94 in 10.0 mi South 21.9 mph - N/A   Clear
9:53 AM 34.0 °F 22.4 °F 21.0 °F 59% 29.95 in 10.0 mi South 20.7 mph 28.8 mph N/A   Clear
10:53 AM 37.9 °F 28.5 °F 23.0 °F 55% 29.94 in 10.0 mi South 17.3 mph - N/A   Clear
11:53 AM 41.0 °F 32.5 °F 27.0 °F 57% 29.91 in 10.0 mi South 17.3 mph - N/A   Clear
12:38 PM 41.0 °F 32.2 °F 28.0 °F 60% 29.86 in 10.0 mi SSW 18.4 mph - N/A   Mostly Cloudy
12:53 PM 41.0 °F 33.9 °F 28.0 °F 60% 29.88 in 10.0 mi SSW 12.7 mph - N/A   Overcast
1:28 PM 41.0 °F 33.9 °F 28.0 °F 60% 29.85 in 10.0 mi South 12.7 mph - N/A   Overcast
1:53 PM 41.0 °F 34.7 °F 28.0 °F 60% 29.87 in 10.0 mi South 10.4 mph - N/A   Overcast
2:53 PM 39.9 °F 33.4 °F 27.0 °F 60% 29.88 in 10.0 mi South 10.4 mph - N/A   Overcast
3:53 PM 37.9 °F 30.5 °F 27.0 °F 65% 29.89 in 10.0 mi South 11.5 mph - N/A   Overcast
4:18 PM 37.9 °F 32.1 °F 26.1 °F 62% 29.87 in 10.0 mi SSE 8.1 mph - N/A   Overcast
4:53 PM 37.0 °F 30.4 °F 26.1 °F 65% 29.90 in 10.0 mi South 9.2 mph - N/A   Overcast
5:51 PM 35.6 °F 27.5 °F 26.6 °F 70% 29.88 in 10.0 mi South 11.5 mph - N/A   Overcast
5:53 PM 36.0 °F 28.5 °F 26.1 °F 67% 29.91 in 10.0 mi South 10.4 mph - N/A   Overcast
6:41 PM 35.1 °F 27.4 °F 27.0 °F 72% 29.90 in 10.0 mi South 10.4 mph - N/A   Overcast
6:53 PM 34.0 °F 25.0 °F 28.0 °F 79% 29.94 in 10.0 mi South 12.7 mph - N/A   Overcast
7:53 PM 33.1 °F 25.5 °F 30.0 °F 89% 29.95 in 8.0 mi South 9.2 mph - N/A   Overcast
8:19 PM 32.0 °F 27.5 °F 30.9 °F 96% 29.92 in 5.0 mi SSE 4.6 mph - N/A   Overcast
8:26 PM 32.0 °F 28.7 °F 30.9 °F 96% 29.92 in 6.0 mi SSE 3.5 mph - N/A   Overcast
8:53 PM 32.0 °F 28.7 °F 30.9 °F 96% 29.95 in 5.0 mi SSE 3.5 mph - N/A   Overcast
9:53 PM 32.0 °F - 30.9 °F 96% 29.96 in 4.0 mi Calm Calm - N/A   Overcast
10:23 PM 32.0 °F - 30.9 °F 96% 29.94 in 3.0 mi Calm Calm - N/A   Overcast
10:26 PM 32.0 °F - 32.0 °F 100% 29.94 in 3.0 mi Calm Calm - N/A   Overcast
10:45 PM 32.0 °F - 30.9 °F 96% 29.93 in 3.0 mi Calm Calm - 0.00 in   Overcast
10:53 PM 32.0 °F 27.5 °F 30.0 °F 92% 29.94 in 2.5 mi NE 4.6 mph - 0.01 in   Overcast
11:01 PM 32.0 °F 28.7 °F 30.9 °F 96% 29.91 in 2.0 mi NE 3.5 mph - N/A   Overcast
11:12 PM 32.0 °F - 32.0 °F 100% 29.92 in 2.5 mi Calm Calm - N/A   Overcast
11:53 PM 32.0 °F 28.7 °F 32.0 °F 100% 29.92 in 4.0 mi NE 3.5 mph - N/A   Overcast